Location: Arrakis Observatory
(44.1122°N, 95.7153°W)
Time: 04:34:44
(UTC-05:00)

Amateur Radio Satellites - All Passes

Search period start: 29 May 2016 04:04
Search period end: 30 May 2016 04:04
Location: Arrakis Observatory, 44.1122°N, 95.7153°W

Satellite Date Start Highest point End Downlink Frequencies (MHz)
Time Altitude Azimuth
SWISSCUBE 29 May 04:06:03 04:08:56 16° 269° (W) 04:11:49 437.505
ITUPSAT 1 29 May 04:13:11 04:15:58 15° 270° (W) 04:18:45 437.325
ISS 29 May 04:21:48 04:24:51 37° 219° (SW) 04:27:53 145.825
YUBILEINY 29 May 04:27:23 04:36:05 73° 266° (W) 04:44:49 435.215
Cosmos 2504 29 May 04:29:11 04:37:05 41° 72° (ENE) 04:45:16 435.465 / 435.565
AO-7 29 May 04:30:18 04:37:59 39° 98° (E) 04:45:38 29.400- 29.500
Gurwin Techsat 1B 29 May 04:31:58 04:36:49 37° 293° (WNW) 04:41:38 435.225
ITAMSAT 1 29 May 04:41:23 04:46:37 71° 286° (WNW) 04:51:48 435.822/435.867
JAS-2 29 May 04:53:56 04:56:52 13° 313° (NW) 04:59:42 435.910
AO-85 29 May 04:59:51 05:01:45 12° 105° (ESE) 05:03:38 145.980
KKS-1 29 May 05:03:52 05:07:45 29° 264° (W) 05:11:39 437.445
CUBESAT XI-V 29 May 05:22:56 05:27:17 39° 69° (ENE) 05:31:40 437.345
Cosmos 2491 29 May 05:24:05 05:32:53 69° 281° (WNW) 05:41:42 435.465 / 435.565
MOZHAYETS 4 29 May 05:31:25 05:34:58 22° 267° (W) 05:38:33
RS-15 29 May 05:31:37 05:39:28 20° 263° (W) 05:47:19 29.354- 29.394
STARS 29 May 05:35:24 05:39:05 26° 265° (W) 05:42:46 437.465
HORYU 2 29 May 06:19:09 06:23:37 83° 104° (ESE) 06:28:03 437.375
Cosmos 2504 29 May 06:22:34 06:30:33 48° 271° (W) 06:38:52 435.465 / 435.565
AO-7 29 May 06:22:56 06:30:57 53° 297° (WNW) 06:38:58 29.400- 29.500
ITAMSAT 1 29 May 06:23:48 06:25:08 11° 305° (NW) 06:26:29 435.822/435.867
YUBILEINY 29 May 06:27:06 06:31:14 14° 287° (WNW) 06:35:24 435.215
CUTE-I 29 May 06:29:37 06:32:39 15° 89° (E) 06:35:40 437.470
AO-85 29 May 06:36:00 06:41:27 77° 122° (ESE) 06:46:47 145.980
LilacSat-2 29 May 06:36:59 06:38:25 12° 90° (E) 06:39:51 437.200
CUBESAT XI-V 29 May 07:01:05 07:04:47 23° 267° (W) 07:08:33 437.345
NOAA 15 29 May 07:11:22 07:16:32 50° 100° (E) 07:21:39 137.62
BRITE-PL 29 May 07:16:06 07:21:01 46° 97° (E) 07:25:31 437.365/2234.400
STRAND 1 29 May 07:21:12 07:26:10 55° 71° (ENE) 07:31:09 437.568
Cubesat XI-IV 29 May 07:22:16 07:27:23 44° 98° (E) 07:32:30 437.490
Cosmos 2491 29 May 07:26:48 07:31:38 15° 305° (NW) 07:36:29 435.465 / 435.565
GOMX 1 29 May 07:32:24 07:36:30 30° 94° (E) 07:40:20 467.674
NOAA 18 29 May 07:34:18 07:39:46 66° 103° (ESE) 07:45:13 137.9125
PRISM 29 May 07:53:12 07:56:12 20° 64° (ENE) 07:59:14 437.425
HO-68 29 May 07:57:14 08:00:36 14° 86° (E) 08:03:57 435.675
HORYU 2 29 May 07:57:56 07:59:31 12° 301° (WNW) 08:01:07 437.375
SO-50 29 May 08:00:46 08:04:20 20° 37° (NE) 08:07:48 436.795
CUTE-I 29 May 08:07:53 08:13:16 75° 286° (WNW) 08:18:36 437.470
LilacSat-2 29 May 08:09:21 08:13:02 51° 287° (WNW) 08:16:43 437.200
DOVE 4 29 May 08:12:28 08:16:28 35° 96° (E) 08:20:19 437.250
AO-7 29 May 08:18:02 08:21:51 14° 319° (NW) 08:25:43 29.400- 29.500
AO-85 29 May 08:18:12 08:22:30 23° 321° (NW) 08:26:41 145.980
GONETS M04 29 May 08:21:44 08:29:15 31° 67° (ENE) 08:36:41
CUTE 1.7 + AOD 2 29 May 08:26:49 08:29:13 15° 90° (E) 08:31:37 437.475
CINEMA 3 29 May 08:31:04 08:33:41 16° 91° (E) 08:36:18 145.822/145.860
COMPASS 1 29 May 08:43:03 08:44:11 11° 88° (E) 08:45:18 437.405
AIST 1 29 May 08:51:39 08:56:02 84° 82° (E) 09:00:20
NOAA 15 29 May 08:51:50 08:55:59 24° 298° (WNW) 09:00:07 137.62
BRITE-PL 29 May 08:55:13 08:59:08 23° 297° (WNW) 09:02:49 437.365/2234.400
Cosmos 2499 29 May 08:58:39 09:06:15 33° 68° (ENE) 09:14:00 435.465 / 435.565
STRAND 1 29 May 09:02:03 09:05:41 19° 268° (W) 09:09:20 437.568
Cubesat XI-IV 29 May 09:02:48 09:07:14 27° 296° (WNW) 09:11:41 437.490
CUBEBUG 2 29 May 09:09:02 09:11:03 13° 90° (E) 09:13:06 437.445
GOMX 1 29 May 09:10:32 09:14:32 28° 294° (WNW) 09:18:18 467.674
NOAA 18 29 May 09:16:03 09:19:55 20° 300° (WNW) 09:23:47 137.9125
UNISAT 6 29 May 09:26:56 09:28:20 11° 60° (ENE) 09:29:43 437.425
PRISM 29 May 09:27:20 09:31:14 40° 261° (W) 09:35:12 437.425
PCSat 29 May 09:30:10 09:34:55 32° 110° (ESE) 09:39:41 145.827
UWE-3 29 May 09:33:09 09:35:56 17° 92° (E) 09:38:45 435.000/436.395/437.385
SEEDS 29 May 09:33:16 09:37:28 55° 100° (E) 09:41:38 437.485
TIGRISAT 29 May 09:33:22 09:35:12 13° 61° (ENE) 09:37:02 435.000
FUNcube-1 29 May 09:33:49 09:34:42 11° 89° (E) 09:35:34 145.935
CANX-2 29 May 09:34:11 09:38:30 88° 100° (E) 09:42:48 2200.000
AUBIESAT-1 29 May 09:36:50 09:40:07 57° 107° (ESE) 09:43:22 437.475
SO-50 29 May 09:40:37 09:45:20 72° 238° (WSW) 09:49:51 436.795
HO-68 29 May 09:42:14 09:49:26 77° 105° (ESE) 09:56:37 435.675
M-CUBED/EXP-1 PRIME 29 May 09:45:10 09:48:28 85° 292° (WNW) 09:51:44 437.505
CUTE-I 29 May 09:50:29 09:52:24 12° 305° (NW) 09:54:18 437.470
DOVE 4 29 May 09:50:36 09:53:59 22° 295° (WNW) 09:57:16 437.250
O/OREOS (USA 219) 29 May 09:54:12 09:58:42 63° 110° (ESE) 10:03:12 437.305
CUTE 1.7 + AOD 2 29 May 10:01:12 10:05:23 54° 287° (WNW) 10:09:34 437.475
ANTELSAT 29 May 10:05:29 10:09:08 27° 68° (ENE) 10:12:45 437.575/2403.000
CINEMA 3 29 May 10:07:08 10:11:06 43° 288° (WNW) 10:15:01 145.822/145.860
Oscar 11 29 May 10:12:31 10:16:31 34° 97° (E) 10:20:29 145.826/435.025
COMPASS 1 29 May 10:16:00 10:20:13 70° 285° (WNW) 10:24:25 437.405
AAUSAT CUBESAT 2 29 May 10:16:39 10:20:53 85° 283° (WNW) 10:25:05 437.432
GONETS M04 29 May 10:18:07 10:26:40 63° 268° (W) 10:35:09
QB50P2 29 May 10:29:12 10:29:25 10° 59° (ENE) 10:29:38 145.880/145.840
ZACube-1 29 May 10:30:14 10:34:18 47° 99° (E) 10:38:25 437.345
POLYITAN 1 29 May 10:31:20 10:31:53 10° 59° (ENE) 10:32:26 437.675
DELFI C3 29 May 10:31:49 10:35:13 26° 95° (E) 10:38:37 145.870
BEESAT 3 29 May 10:38:04 10:38:11 10° 108° (ESE) 10:38:18 437.485
NANOSAT C BR1 29 May 10:41:48 10:43:39 13° 61° (ENE) 10:45:31 145.865
CUSAT 1 29 May 10:42:23 10:46:15 16° 76° (ENE) 10:50:23 437.405
CUBEBUG 2 29 May 10:43:57 10:48:02 55° 287° (WNW) 10:52:10 437.445
Cosmos 2499 29 May 10:51:23 10:59:50 62° 268° (W) 11:08:32 435.465 / 435.565
UNISAT 6 29 May 11:00:06 11:04:27 80° 256° (WSW) 11:08:46 437.425
TIGRISAT 29 May 11:07:01 11:11:21 71° 257° (WSW) 11:15:39 435.000
FUNcube-1 29 May 11:07:13 11:11:24 71° 286° (WNW) 11:15:39 145.935
UWE-3 29 May 11:08:39 11:12:38 43° 288° (WNW) 11:16:39 435.000/436.395/437.385
SEEDS 29 May 11:10:14 11:12:44 15° 297° (WNW) 11:15:15 437.485
CANX-2 29 May 11:13:03 11:13:40 10° 301° (WNW) 11:14:17 2200.000
PCSat 29 May 11:13:03 11:18:11 42° 309° (NW) 11:23:21 145.827
DUCHIFAT 1 29 May 11:17:28 11:21:02 27° 68° (ENE) 11:24:35 145.980
BUGSAT 1 29 May 11:28:28 11:31:17 18° 64° (ENE) 11:34:06 437.445
HO-68 29 May 11:31:00 11:36:26 24° 305° (NW) 11:41:54 435.675
O/OREOS (USA 219) 29 May 11:35:33 11:38:32 17° 309° (NW) 11:41:32 437.305
JAS-2 29 May 11:35:42 11:40:58 21° 54° (NE) 11:46:21 435.910
BEESAT 2 29 May 11:40:58 11:44:24 28° 115° (ESE) 11:47:51 435.950
ANTELSAT 29 May 11:42:01 11:45:47 29° 264° (W) 11:49:32 437.575/2403.000
Oscar 11 29 May 11:49:00 11:52:29 24° 293° (WNW) 11:55:56 145.826/435.025
POPSAT HIP 1 29 May 11:57:05 12:01:19 79° 76° (ENE) 12:05:34 437.405
QB50P1 29 May 11:57:17 12:01:32 81° 74° (ENE) 12:05:46 145.935-145.965
HUMSAT D 29 May 11:57:42 12:01:52 76° 285° (WNW) 12:06:04 437.325/437.525
QB50P2 29 May 12:00:18 12:04:32 89° 255° (WSW) 12:08:48 145.880/145.840
POLYITAN 1 29 May 12:02:47 12:07:01 87° 254° (WSW) 12:11:16 437.675
DELFI C3 29 May 12:06:37 12:10:02 27° 292° (WNW) 12:13:27 145.870
ZACube-1 29 May 12:07:32 12:10:15 17° 296° (WNW) 12:13:01 437.345
ESTCUBE 1 29 May 12:09:14 12:13:08 27° 95° (E) 12:17:00 437.505/2401.250
BEESAT 3 29 May 12:11:18 12:15:14 79° 305° (NW) 12:19:13 437.485
CUBEBUG 1 29 May 12:11:24 12:14:35 19° 92° (E) 12:17:44 437.445
DX 1 29 May 12:11:53 12:14:31 16° 91° (E) 12:17:08 434.975-435.025
NANOSAT C BR1 29 May 12:14:39 12:18:51 69° 258° (WSW) 12:23:04 145.865
50 SAT 29 May 12:15:41 12:18:35 21° 94° (E) 12:21:29 437.505
GONETS M04 29 May 12:19:10 12:21:33 11° 289° (WNW) 12:23:57
CUSAT 1 29 May 12:20:16 12:26:51 80° 97° (E) 12:34:45 437.405
VELOX 1 29 May 12:23:14 12:26:53 25° 95° (E) 12:30:29 145.980
SPROUT 29 May 12:30:40 12:32:17 12° 89° (E) 12:33:53 437.525
DANDE 29 May 12:32:53 12:38:25 50° 90° (E) 12:45:30 436.750
Cosmos 2499 29 May 12:48:20 12:51:13 12° 288° (WNW) 12:54:07 435.465 / 435.565
DUCHIFAT 1 29 May 12:53:01 12:56:40 28° 264° (W) 13:00:19 145.980
UKube-1 29 May 12:56:22 13:00:23 36° 98° (E) 13:04:22 .
AISAT 29 May 12:59:05 13:03:29 62° 101° (ESE) 13:07:49 437.250
PCSat 29 May 13:01:41 13:03:07 11° 332° (NNW) 13:04:32 145.827
BUGSAT 1 29 May 13:02:20 13:06:22 44° 261° (W) 13:10:22 437.445
JAS-2 29 May 13:17:20 13:24:48 82° 73° (ENE) 13:32:44 435.910
BEESAT 2 29 May 13:18:38 13:22:11 30° 313° (NW) 13:25:46 435.950
AO-85 29 May 13:27:28 13:30:46 18° 34° (NE) 13:33:54 145.980
Oscar 19 29 May 13:35:37 13:40:43 59° 72° (ENE) 13:45:50 437.125/150
Cosmos 2491 29 May 13:38:02 13:42:32 15° 54° (NE) 13:47:00 435.465 / 435.565
AO-7 29 May 13:43:12 13:47:38 16° 43° (NE) 13:52:05 29.400- 29.500
ESTCUBE 1 29 May 13:45:54 13:49:56 32° 292° (WNW) 13:53:58 437.505/2401.250
DX 1 29 May 13:46:47 13:51:02 52° 288° (WNW) 13:55:14 434.975-435.025
CUBEBUG 1 29 May 13:46:56 13:51:04 41° 290° (WNW) 13:55:08 437.445
50 SAT 29 May 13:49:07 13:52:20 28° 291° (WNW) 13:55:32 437.505
BEESAT 3 29 May 13:51:50 13:53:36 13° 325° (NW) 13:55:24 437.485
VELOX 1 29 May 13:59:24 14:03:23 33° 292° (WNW) 14:07:20 145.980
SPROUT 29 May 14:04:27 14:08:40 65° 286° (WNW) 14:12:52 437.525
CUSAT 1 29 May 14:04:31 14:10:00 24° 300° (WNW) 14:16:07 437.405
AIST 2 29 May 14:06:21 14:10:25 62° 121° (ESE) 14:14:31 435.215
Gurwin Techsat 1B 29 May 14:14:30 14:19:42 57° 71° (ENE) 14:24:54 435.225
DANDE 29 May 14:16:17 14:21:39 32° 296° (WNW) 14:28:15 436.750
TISAT 1 29 May 14:21:02 14:25:08 52° 100° (E) 14:29:11 437.305
ITAMSAT 1 29 May 14:22:30 14:26:52 28° 64° (ENE) 14:31:15 435.822/435.867
SWISSCUBE 29 May 14:26:21 14:28:44 14° 89° (E) 14:31:07 437.505
UKube-1 29 May 14:32:51 14:36:13 22° 295° (WNW) 14:39:34 .
ITUPSAT 1 29 May 14:33:29 14:36:03 14° 90° (E) 14:38:37 437.325
AISAT 29 May 14:36:58 14:39:27 15° 299° (WNW) 14:41:57 437.250
BEESAT 29 May 14:54:40 14:58:30 23° 94° (E) 15:02:20 436.000
JAS-2 29 May 15:05:06 15:10:38 22° 273° (W) 15:16:24 435.910
AO-85 29 May 15:07:14 15:11:59 86° 238° (WSW) 15:16:16 145.980
Oscar 19 29 May 15:16:48 15:20:25 19° 269° (W) 15:24:02 437.125/150
AO-7 29 May 15:30:39 15:38:44 60° 64° (ENE) 15:46:52 29.400- 29.500
Cosmos 2491 29 May 15:32:38 15:41:23 66° 78° (ENE) 15:50:01 435.465 / 435.565
YUBILEINY 29 May 15:35:18 15:42:15 28° 81° (E) 15:49:12 435.215
RS-15 29 May 15:37:30 15:42:21 14° 93° (E) 15:47:17 29.354- 29.394
HORYU 2 29 May 15:45:49 15:46:55 11° 58° (ENE) 15:48:01 437.375
AIST 2 29 May 15:46:20 15:49:17 19° 320° (NW) 15:52:15 435.215
Gurwin Techsat 1B 29 May 15:56:12 16:00:01 20° 269° (W) 16:03:50 435.225
TISAT 1 29 May 15:57:53 16:00:22 16° 297° (WNW) 16:02:52 437.305
ITAMSAT 1 29 May 16:01:21 16:06:10 40° 262° (W) 16:11:03 435.822/435.867
SWISSCUBE 29 May 16:02:14 16:07:02 71° 287° (WNW) 16:11:48 437.505
ITUPSAT 1 29 May 16:09:34 16:14:22 68° 287° (WNW) 16:19:08 437.325
BEESAT 29 May 16:31:57 16:36:26 41° 291° (WNW) 16:40:54 436.000
PCSat 29 May 16:35:28 16:35:57 10° 27° (NNE) 16:36:26 145.827
KKS-1 29 May 16:52:34 16:56:51 46° 99° (E) 17:01:06 437.445
BRITE-PL 29 May 16:53:29 16:55:00 11° 55° (NE) 16:56:31 437.365/2234.400
NOAA 15 29 May 16:56:19 16:59:06 15° 57° (ENE) 17:01:54 137.62
Cubesat XI-IV 29 May 17:09:28 17:11:49 13° 56° (NE) 17:14:10 437.490
Cosmos 2504 29 May 17:11:02 17:17:01 28° 83° (E) 17:23:16 435.465 / 435.565
HORYU 2 29 May 17:18:21 17:22:47 89° 274° (W) 17:27:14 437.375
STARS 29 May 17:22:21 17:26:37 49° 100° (E) 17:30:50 437.465
MOZHAYETS 4 29 May 17:23:26 17:28:05 77° 102° (ESE) 17:32:44
NOAA 18 29 May 17:23:31 17:27:35 22° 60° (ENE) 17:31:40 137.9125
AO-7 29 May 17:24:37 17:31:53 33° 264° (W) 17:39:14 29.400- 29.500
YUBILEINY 29 May 17:29:41 17:38:19 67° 282° (WNW) 17:47:00 435.215
Cosmos 2491 29 May 17:30:28 17:37:30 28° 279° (W) 17:44:30 435.465 / 435.565
RS-15 29 May 17:40:58 17:52:03 64° 115° (ESE) 18:03:46 29.354- 29.394
CUTE-I 29 May 17:52:21 17:56:52 29° 65° (ENE) 18:01:26 437.470
PCSat 29 May 18:15:55 18:20:59 38° 49° (NE) 18:26:01 145.827
O/OREOS (USA 219) 29 May 18:24:15 18:27:30 19° 52° (NE) 18:30:42 437.305
BRITE-PL 29 May 18:26:47 18:32:24 64° 73° (ENE) 18:38:01 437.365/2234.400
HO-68 29 May 18:28:53 18:32:33 15° 48° (NE) 18:36:12 435.675
KKS-1 29 May 18:29:57 18:33:06 19° 296° (WNW) 18:36:13 437.445
NOAA 15 29 May 18:32:49 18:38:08 89° 254° (WSW) 18:43:30 137.62
GOMX 1 29 May 18:40:35 18:45:44 43° 70° (ENE) 18:50:45 467.674
Cubesat XI-IV 29 May 18:45:45 18:51:03 83° 74° (ENE) 18:56:24 437.490
BEESAT 3 29 May 18:50:46 18:53:00 14° 37° (NE) 18:55:14 437.485
LilacSat-2 29 May 18:52:19 18:56:07 89° 242° (WSW) 18:59:56 437.200
AUBIESAT-1 29 May 18:53:14 18:53:55 10° 57° (ENE) 18:54:36 437.475
CUBESAT XI-V 29 May 18:54:47 18:59:32 80° 103° (ESE) 19:04:14 437.345
STARS 29 May 18:59:41 19:02:36 18° 297° (WNW) 19:05:31 437.465
M-CUBED/EXP-1 PRIME 29 May 19:00:08 19:02:31 16° 60° (ENE) 19:04:48 437.505
MOZHAYETS 4 29 May 19:02:26 19:04:39 13° 300° (WNW) 19:06:51
NOAA 18 29 May 19:02:27 19:07:50 59° 259° (WSW) 19:13:14 137.9125
Cosmos 2504 29 May 19:02:44 19:09:50 56° 284° (WNW) 19:17:27 435.465 / 435.565
DOVE 4 29 May 19:18:16 19:23:13 47° 71° (ENE) 19:27:59 437.250
CUTE 1.7 + AOD 2 29 May 19:21:43 19:23:46 13° 62° (ENE) 19:25:49 437.475
STRAND 1 29 May 19:31:19 19:34:33 16° 90° (E) 19:37:45 437.568
CUTE-I 29 May 19:31:49 19:36:46 39° 262° (W) 19:41:46 437.470
YUBILEINY 29 May 19:32:37 19:37:05 15° 306° (NW) 19:41:35 435.215
CINEMA 3 29 May 19:33:48 19:37:16 21° 66° (ENE) 19:40:38 145.822/145.860
RS-15 29 May 19:54:02 20:05:05 48° 322° (NW) 20:16:44 29.354- 29.394
BEESAT 2 29 May 19:57:16 20:00:50 30° 46° (NE) 20:04:23 435.950
PCSat 29 May 19:59:26 20:04:21 36° 249° (WSW) 20:09:15 145.827
O/OREOS (USA 219) 29 May 20:02:51 20:07:13 51° 251° (WSW) 20:11:32 437.305
BRITE-PL 29 May 20:07:09 20:11:15 20° 270° (W) 20:15:23 437.365/2234.400
CUBEBUG 2 29 May 20:08:51 20:11:17 15° 63° (ENE) 20:13:40 437.445
HO-68 29 May 20:11:55 20:18:58 66° 69° (ENE) 20:26:03 435.675
NOAA 15 29 May 20:16:49 20:18:39 12° 273° (W) 20:20:29 137.62
GOMX 1 29 May 20:19:16 20:23:53 28° 266° (W) 20:28:26 467.674
AUBIESAT-1 29 May 20:23:56 20:27:58 79° 250° (WSW) 20:31:45 437.475
SEEDS 29 May 20:26:15 20:30:14 44° 71° (ENE) 20:34:15 437.485
BEESAT 3 29 May 20:27:16 20:31:15 84° 237° (WSW) 20:35:11 437.485
CANX-2 29 May 20:28:04 20:32:15 74° 75° (ENE) 20:36:30 2200.000
Cubesat XI-IV 29 May 20:29:20 20:31:47 13° 272° (W) 20:34:15 437.490
FUNcube-1 29 May 20:31:23 20:32:29 11° 61° (ENE) 20:33:36 145.935
UWE-3 29 May 20:31:59 20:34:50 18° 65° (ENE) 20:37:39 435.000/436.395/437.385
M-CUBED/EXP-1 PRIME 29 May 20:32:47 20:36:49 50° 254° (WSW) 20:40:32 437.505
CUBESAT XI-V 29 May 20:34:04 20:36:15 13° 300° (WNW) 20:38:27 437.345
AIST 2 29 May 20:49:32 20:51:08 12° 33° (NNE) 20:52:43 435.215
CUTE 1.7 + AOD 2 29 May 20:54:55 20:59:05 64° 259° (W) 21:03:18 437.475
DOVE 4 29 May 20:57:02 21:01:04 23° 267° (W) 21:05:00 437.250
ISS 29 May 21:02:12 21:05:01 27° 138° (SE) 21:07:52 145.825
Cosmos 2504 29 May 21:04:09 21:05:24 10° 309° (NW) 21:06:40 435.465 / 435.565
PRISM 29 May 21:07:38 21:11:03 24° 95° (E) 21:14:25 437.425
COMPASS 1 29 May 21:07:47 21:11:56 88° 259° (W) 21:16:08 437.405
AAUSAT CUBESAT 2 29 May 21:07:58 21:12:04 75° 77° (ENE) 21:16:15 437.432
Oscar 11 29 May 21:08:41 21:12:30 32° 69° (ENE) 21:16:20 145.826/435.025
STRAND 1 29 May 21:09:04 21:14:10 65° 288° (WNW) 21:19:16 437.568
CINEMA 3 29 May 21:09:41 21:14:10 43° 261° (W) 21:18:29 145.822/145.860
CUSAT 1 29 May 21:14:08 21:18:18 15° 53° (NE) 21:22:10 437.405
DELFI C3 29 May 21:19:42 21:22:34 19° 66° (ENE) 21:25:27 145.870
AIST 1 29 May 21:22:11 21:26:23 45° 93° (E) 21:30:36
GONETS M04 29 May 21:25:17 21:32:47 33° 83° (E) 21:40:16
ZACube-1 29 May 21:27:25 21:31:25 44° 72° (ENE) 21:35:23 437.345
DANDE 29 May 21:29:32 21:32:59 13° 50° (NE) 21:36:19 436.750
BEESAT 2 29 May 21:35:11 21:38:39 29° 244° (WSW) 21:42:05 435.950
Cosmos 2499 29 May 21:39:33 21:44:43 21° 78° (ENE) 21:50:07 435.465 / 435.565
CUBEBUG 2 29 May 21:43:13 21:47:30 57° 260° (W) 21:51:41 437.445
HO-68 29 May 22:01:32 22:07:12 25° 267° (W) 22:12:55 435.675
SEEDS 29 May 22:03:29 22:06:10 17° 269° (W) 22:08:54 437.485
FUNcube-1 29 May 22:03:57 22:08:09 78° 256° (WSW) 22:12:19 145.935
PHONESAT 2.4 29 May 22:04:04 22:06:29 20° 159° (SSE) 22:08:54 2401.200-2431.200
UWE-3 29 May 22:06:53 22:10:59 45° 261° (W) 22:15:02 435.000/436.395/437.385
CANX-2 29 May 22:08:17 22:08:38 10° 272° (W) 22:09:00 2200.000
RS-15 29 May 22:11:44 22:21:32 28° 354° (N) 22:31:38 29.354- 29.394
AIST 2 29 May 22:26:18 22:30:26 65° 54° (NE) 22:34:32 435.215
ISS 29 May 22:38:11 22:41:21 46° 335° (NNW) 22:44:31 145.825
PRISM 29 May 22:42:40 22:46:23 31° 292° (WNW) 22:50:03 437.425
Oscar 11 29 May 22:45:10 22:48:39 24° 266° (W) 22:52:12 145.826/435.025
HUMSAT D 29 May 22:50:09 22:54:13 89° 76° (ENE) 22:58:19 437.325/437.525
UNISAT 6 29 May 22:50:57 22:53:59 18° 93° (E) 22:57:01 437.425
DELFI C3 29 May 22:53:31 22:57:11 36° 262° (W) 23:00:54 145.870
CUSAT 1 29 May 22:54:29 23:02:12 68° 76° (ENE) 23:08:30 437.405
50 SAT 29 May 22:56:35 22:58:21 13° 63° (ENE) 23:00:07 437.505
TIGRISAT 29 May 22:57:30 23:00:42 20° 93° (E) 23:03:57 435.000
AIST 1 29 May 23:01:15 23:04:14 18° 291° (WNW) 23:07:14
ZACube-1 29 May 23:05:12 23:07:56 17° 268° (W) 23:10:39 437.345
CUBEBUG 1 29 May 23:08:50 23:12:09 21° 65° (ENE) 23:15:28 437.445
DX 1 29 May 23:08:54 23:11:51 18° 63° (ENE) 23:14:48 434.975-435.025
DANDE 29 May 23:09:49 23:18:02 52° 72° (ENE) 23:25:22 436.750
ESTCUBE 1 29 May 23:10:08 23:14:05 30° 67° (ENE) 23:18:02 437.505/2401.250
GONETS M04 29 May 23:20:30 23:29:08 58° 284° (WNW) 23:37:46
VELOX 1 29 May 23:21:53 23:25:39 28° 67° (ENE) 23:29:26 145.980
SPROUT 29 May 23:26:08 23:27:57 12° 61° (ENE) 23:29:45 437.525
Cosmos 2499 29 May 23:29:29 23:36:48 76° 280° (W) 23:44:44 435.465 / 435.565
ANTELSAT 29 May 23:31:13 23:35:24 48° 99° (E) 23:39:39 437.575/2403.000
PHONESAT 2.4 29 May 23:39:51 23:42:50 40° 175° (S) 23:45:49 2401.200-2431.200
POPSAT HIP 1 29 May 23:42:44 23:44:00 11° 89° (E) 23:45:17 437.405
QB50P1 29 May 23:42:45 23:44:09 11° 89° (E) 23:45:33 145.935-145.965
QB50P2 29 May 23:45:24 23:47:26 13° 90° (E) 23:49:28 145.880/145.840
POLYITAN 1 29 May 23:47:50 23:49:56 13° 90° (E) 23:52:00 437.675
UKube-1 29 May 23:52:08 23:56:09 38° 69° (ENE) 00:00:11 .
SO-50 29 May 23:56:20 00:00:25 27° 114° (ESE) 00:04:32 436.795
AISAT 29 May 23:57:31 00:01:56 66° 74° (ENE) 00:06:24 437.250
NANOSAT C BR1 29 May 23:58:36 00:01:19 17° 92° (E) 00:04:02 145.865
AIST 2 30 May 00:06:20 00:08:24 14° 251° (WSW) 00:10:29 435.215
ISS 30 May 00:15:44 00:18:21 21° 355° (N) 00:20:58 145.825
UNISAT 6 30 May 00:26:49 00:30:54 43° 289° (WNW) 00:35:02 437.425
RS-15 30 May 00:27:38 00:38:45 38° 29° (NNE) 00:49:57 29.354- 29.394
50 SAT 30 May 00:28:10 00:31:41 47° 260° (W) 00:35:14 437.505
JAS-2 30 May 00:30:00 00:32:08 11° 80° (E) 00:34:12 435.910
TIGRISAT 30 May 00:33:33 00:37:33 39° 290° (WNW) 00:41:36 435.000
DUCHIFAT 1 30 May 00:35:03 00:38:58 38° 98° (E) 00:42:52 145.980
CUSAT 1 30 May 00:37:42 00:43:27 24° 279° (W) 00:48:29 437.405
BUGSAT 1 30 May 00:43:07 00:46:16 22° 94° (E) 00:49:23 437.445
DX 1 30 May 00:43:24 00:47:40 50° 260° (W) 00:51:57 434.975-435.025
CUBEBUG 1 30 May 00:43:58 00:48:10 42° 262° (W) 00:52:24 437.445
ESTCUBE 1 30 May 00:46:56 00:50:50 29° 265° (W) 00:54:48 437.505/2401.250
DANDE 30 May 00:53:05 01:00:39 39° 273° (W) 01:07:29 436.750
VELOX 1 30 May 00:58:03 01:02:01 31° 264° (W) 01:06:00 145.980
SPROUT 30 May 00:59:02 01:03:20 72° 258° (WSW) 01:07:37 437.525
ANTELSAT 30 May 01:08:54 01:11:48 18° 296° (WNW) 01:14:43 437.575/2403.000
TISAT 1 30 May 01:13:52 01:17:54 47° 72° (ENE) 01:21:57 437.305
POPSAT HIP 1 30 May 01:16:04 01:20:15 67° 286° (WNW) 01:24:24 437.405
QB50P1 30 May 01:16:12 01:20:23 66° 286° (WNW) 01:24:32 145.935-145.965
PHONESAT 2.4 30 May 01:16:25 01:19:18 33° 192° (SSW) 01:22:09 2401.200-2431.200
QB50P2 30 May 01:19:28 01:23:37 57° 287° (WNW) 01:27:44 145.880/145.840
POLYITAN 1 30 May 01:21:57 01:26:05 56° 287° (WNW) 01:30:11 437.675
GONETS M04 30 May 01:24:51 01:28:14 12° 308° (NW) 01:31:37
Cosmos 2499 30 May 01:27:24 01:31:34 15° 304° (NW) 01:35:55 435.465 / 435.565
UKube-1 30 May 01:29:02 01:32:19 21° 266° (W) 01:35:38 .
NANOSAT C BR1 30 May 01:33:18 01:37:18 44° 289° (WNW) 01:41:16 145.865
SWISSCUBE 30 May 01:33:57 01:37:22 20° 62° (ENE) 01:40:46 437.505
SO-50 30 May 01:36:01 01:40:43 45° 312° (NW) 01:45:26 436.795
AISAT 30 May 01:36:50 01:38:52 13° 270° (W) 01:40:55 437.250
ITUPSAT 1 30 May 01:41:25 01:44:55 21° 63° (ENE) 01:48:26 437.325
YUBILEINY 30 May 01:43:08 01:47:48 15° 55° (NE) 01:52:28 435.215
Oscar 19 30 May 01:46:43 01:50:12 18° 91° (E) 01:53:39 437.125/150
ISS 30 May 01:52:36 01:55:29 28° 16° (NNE) 01:58:23 145.825
BEESAT 30 May 02:02:22 02:06:34 32° 67° (ENE) 02:10:48 436.000
JAS-2 30 May 02:11:18 02:18:44 68° 101° (E) 02:25:17 435.910
DUCHIFAT 1 30 May 02:11:21 02:14:25 20° 295° (WNW) 02:17:28 145.980
BUGSAT 1 30 May 02:18:07 02:21:42 31° 291° (WNW) 02:25:16 437.445
Gurwin Techsat 1B 30 May 02:30:00 02:33:51 20° 91° (E) 02:37:41 435.225
RS-15 30 May 02:40:41 02:53:05 89° 59° (ENE) 03:05:25 29.354- 29.394
Cosmos 2491 30 May 02:44:27 02:48:37 14° 73° (ENE) 02:52:47 435.465 / 435.565
TISAT 1 30 May 02:51:09 02:53:49 16° 268° (W) 02:56:29 437.305
MOZHAYETS 4 30 May 02:53:45 02:54:40 11° 58° (ENE) 02:55:34
PHONESAT 2.4 30 May 02:54:06 02:55:29 12° 208° (SSW) 02:56:53 2401.200-2431.200
Cosmos 2504 30 May 03:01:09 03:04:56 13° 55° (NE) 03:08:46 435.465 / 435.565
SWISSCUBE 30 May 03:10:09 03:14:46 51° 260° (W) 03:19:27 437.505
ITUPSAT 1 30 May 03:17:49 03:22:25 49° 260° (W) 03:27:03 437.325
SO-50 30 May 03:20:38 03:22:27 12° 333° (NNW) 03:24:15 436.795
Oscar 19 30 May 03:24:50 03:29:55 60° 288° (WNW) 03:34:57 437.125/150
ISS 30 May 03:28:55 03:32:10 70° 214° (SW) 03:35:24 145.825
AO-7 30 May 03:32:33 03:37:10 16° 87° (E) 03:41:45 29.400- 29.500
YUBILEINY 30 May 03:37:48 03:46:33 68° 79° (E) 03:55:17 435.215
BEESAT 30 May 03:40:13 03:44:21 29° 264° (W) 03:48:31 436.000
KKS-1 30 May 03:51:46 03:56:06 51° 72° (ENE) 04:00:26 437.445
